Meridian — EI6085 — position and weather

sailwx.info

Track history (hours):
 
Tides and Currents Weather Stations Pressure Air Temp Water Temp Dewpoint Dewpoint Depression Visibility Wind Speed Wind Dir Waves Ship Positions

Meridian

Last reported at 2014-Jul-24 10:33 UTC. Time now 2014-Jul-24 10:45 UTC.
Position N 54°36' W 008°28'.

Length 12 m.

Type: Fishing. MMSI: 250107450.

Date/timePositionNaut miles runAvg speedWind from/ knotsBaromVisibWave heightAir tempDewpointWater temp
2014-Jul-24 10:33N 54°36' W 008°28'2 2.5
2014-Jul-24 09:34N 54°38' W 008°26'0 0.3
2014-Jul-24 08:28N 54°38' W 008°27'2 0.0
2014-Jul-22 09:33N 54°36' W 008°28'2 1.7
2014-Jul-22 08:26N 54°38' W 008°27'0 0.0
2014-Jul-21 16:12N 54°38' W 008°27'3 3.7
2014-Jul-21 15:30N 54°35' W 008°27'6 6.2
2014-Jul-21 14:29N 54°36' W 008°38'3 3.3
2014-Jul-21 13:28N 54°36' W 008°32'4 4.0
2014-Jul-21 12:30N 54°38' W 008°27'0 0.2
2014-Jul-21 11:33N 54°38' W 008°27'0 0.0
2014-Jul-21 10:33N 54°38' W 008°27'0 0.0
2014-Jul-21 09:33N 54°38' W 008°27'0 0.0
2014-Jul-20 15:30N 54°38' W 008°26'10 9.8
2014-Jul-20 14:28N 54°37' W 008°43'2 0.3
2014-Jul-20 09:33N 54°37' W 008°41'8 7.2
2014-Jul-20 08:27N 54°37' W 008°27'1 1.6
2014-Jul-20 07:32N 54°38' W 008°27'0 0.0
2014-Jul-19 16:13N 54°38' W 008°27'2 3.1
2014-Jul-19 15:32N 54°36' W 008°29'10 9.4
2014-Jul-19 14:31N 54°36' W 008°45'6 0.9
2014-Jul-19 08:33N 54°36' W 008°36'6 5.6
2014-Jul-19 07:33N 54°38' W 008°26'1 0.0
2014-Jul-17 15:32N 54°38' W 008°27'5 4.2
2014-Jul-17 14:22N 54°35' W 008°34'2 1.7
2014-Jul-17 13:26N 54°36' W 008°36'3 2.8
2014-Jul-17 12:30N 54°36' W 008°40'1 1.3
2014-Jul-17 11:29N 54°36' W 008°43'4 4.8
2014-Jul-17 10:33N 54°36' W 008°35'5 4.4
2014-Jul-17 09:28N 54°37' W 008°27'1 1.6
2014-Jul-17 08:33N 54°38' W 008°27'  
Track history (hours):
 
Tides and Currents Weather Stations Pressure Air Temp Water Temp Dewpoint Dewpoint Depression Visibility Wind Speed Wind Dir Waves Ship Positions

Meridian

Last reported at 2014-Jul-24 10:33 UTC. Time now 2014-Jul-24 10:45 UTC.
Position N 54°36' W 008°28'.

Length 12 m.

Type: Fishing. MMSI: 250107450.

Date/timePositionNaut miles runAvg speedWind from/ knotsBaromVisibWave heightAir tempDewpointWater temp
2014-Jul-24 10:33N 54°36' W 008°28'2 2.5
2014-Jul-24 09:34N 54°38' W 008°26'0 0.3
2014-Jul-24 08:28N 54°38' W 008°27'2 0.0
2014-Jul-22 09:33N 54°36' W 008°28'2 1.7
2014-Jul-22 08:26N 54°38' W 008°27'0 0.0
2014-Jul-21 16:12N 54°38' W 008°27'3 3.7
2014-Jul-21 15:30N 54°35' W 008°27'6 6.2
2014-Jul-21 14:29N 54°36' W 008°38'3 3.3
2014-Jul-21 13:28N 54°36' W 008°32'4 4.0
2014-Jul-21 12:30N 54°38' W 008°27'0 0.2
2014-Jul-21 11:33N 54°38' W 008°27'0 0.0
2014-Jul-21 10:33N 54°38' W 008°27'0 0.0
2014-Jul-21 09:33N 54°38' W 008°27'0 0.0
2014-Jul-20 15:30N 54°38' W 008°26'10 9.8
2014-Jul-20 14:28N 54°37' W 008°43'2 0.3
2014-Jul-20 09:33N 54°37' W 008°41'8 7.2
2014-Jul-20 08:27N 54°37' W 008°27'1 1.6
2014-Jul-20 07:32N 54°38' W 008°27'0 0.0
2014-Jul-19 16:13N 54°38' W 008°27'2 3.1
2014-Jul-19 15:32N 54°36' W 008°29'10 9.4
2014-Jul-19 14:31N 54°36' W 008°45'6 0.9
2014-Jul-19 08:33N 54°36' W 008°36'6 5.6
2014-Jul-19 07:33N 54°38' W 008°26'1 0.0
2014-Jul-17 15:32N 54°38' W 008°27'5 4.2
2014-Jul-17 14:22N 54°35' W 008°34'2 1.7
2014-Jul-17 13:26N 54°36' W 008°36'3 2.8
2014-Jul-17 12:30N 54°36' W 008°40'1 1.3
2014-Jul-17 11:29N 54°36' W 008°43'4 4.8
2014-Jul-17 10:33N 54°36' W 008°35'5 4.4
2014-Jul-17 09:28N 54°37' W 008°27'1 1.6
2014-Jul-17 08:33N 54°38' W 008°27'  

Dump ship's entire track history